Tacoma, WA

10:17 AM PDT on April 24, 2017 (GMT -0700)
McChord Air Force Base

Weather History for KTCM - August, 2012

Change the Weather History Date:

Wednesday, August 22, 2012

  Actual Average Record
Temperature  
Mean Temperature 62 °F -  
Max Temperature 72 °F 74 °F 88 °F (1956)
Min Temperature 53 °F 51 °F 41 °F (1960)
Degree Days  
Heating Degree Days 2    
Growing Degree Days 12 (Base 50)    
Moisture  
Dew Point 51 °F    
Average Humidity 71    
Maximum Humidity 89    
Minimum Humidity 46    
Precipitation  
Precipitation 0.00 in - - ()
Sea Level Pressure  
Sea Level Pressure 30.10 in    
Wind  
Wind Speed 4 mph (WSW)    
Max Wind Speed 7 mph    
Max Gust Speed -    
Visibility 10 miles    
Events Rain    
Averages and records for this station are not official NWS values.
T = Trace of Precipitation, MM = Missing Value Source: NWS Daily Summary

Daily Weather History Graph

Daily Weather History Graph

Search for Another Location

Airport or City:

Trip Planner

Search our weather history database for the weather conditions in past years. The results will help you decide how hot, cold, wet, or windy it might be!

Date:

Astronomy

Aug. 22, 2012 Rise Set
Actual Time 6:16 AM PDT 8:07 PM PDT
Civil Twilight 5:44 AM PDT 8:40 PM PDT
Nautical Twilight 5:04 AM PDT 9:19 PM PDT
Astronomical Twilight 4:20 AM PDT 10:03 PM PDT
Moon 12:31 PM PDT (8/22) 10:23 PM PDT (8/22)
Length of Visible Light 14h 55m
Length of Day
13h 50m
Waxing Crescent, 30% of the Moon is Illuminated
Aug 22
Waxing Crescent
Aug 24
First Quarter
Aug 31
Full
Sep 8
Last Quarter
Sep 15
New

Hourly Weather History & Observations

Time (PDT) Temp. Dew Point Humidity Pressure Visibility Wind Dir Wind Speed Gust Speed Precip Events Conditions
12:58 AM 54.0 °F 49.8 °F 86% 30.07 in 10.0 mi South 3.5 mph - N/A   Clear
1:58 AM 54.0 °F 50.4 °F 88% 30.08 in 10.0 mi South 4.6 mph - N/A   Mostly Cloudy
2:03 AM 53.6 °F 50.0 °F 88% 30.07 in 10.0 mi South 4.6 mph - N/A   Overcast
2:58 AM 53.8 °F 50.7 °F 89% 30.09 in 10.0 mi South 5.8 mph - N/A   Overcast
3:38 AM 55.4 °F 50.0 °F 82% 30.08 in 10.0 mi South 5.8 mph - N/A   Overcast
3:58 AM 54.5 °F 50.4 °F 86% 30.09 in 10.0 mi South 4.6 mph - N/A   Overcast
4:03 AM 53.6 °F 50.0 °F 88% 30.08 in 10.0 mi South 3.5 mph - N/A   Overcast
4:58 AM 56.3 °F 51.3 °F 83% 30.10 in 10.0 mi SSW 5.8 mph - N/A   Overcast
5:58 AM 56.7 °F 52.0 °F 84% 30.10 in 10.0 mi SSW 6.9 mph - N/A   Overcast
6:38 AM 57.2 °F 51.8 °F 82% 30.09 in 10.0 mi South 2.3 mph - N/A   Overcast
6:48 AM 55.4 °F 51.8 °F 88% 30.10 in 10.0 mi South 2.3 mph - N/A   Overcast
6:58 AM 55.4 °F 52.0 °F 88% 30.11 in 10.0 mi NE 1.2 mph - N/A   Overcast
7:58 AM 57.7 °F 52.5 °F 83% 30.12 in 10.0 mi Calm Calm - N/A   Overcast
8:33 AM 59.0 °F 51.8 °F 77% 30.11 in 10.0 mi Calm Calm - N/A   Overcast
8:58 AM 59.7 °F 52.5 °F 77% 30.12 in 10.0 mi Calm Calm - N/A   Overcast
9:08 AM 60.8 °F 51.8 °F 72% 30.11 in 10.0 mi Variable 3.5 mph - N/A   Overcast
9:58 AM 61.2 °F 51.8 °F 71% 30.13 in 10.0 mi SSW 5.8 mph - N/A   Overcast
10:58 AM 62.2 °F 52.2 °F 70% 30.13 in 10.0 mi NW 3.5 mph - N/A   Overcast
11:17 AM 64.4 °F 51.8 °F 64% 30.12 in 10.0 mi Variable 3.5 mph - N/A   Overcast
11:18 AM 62.6 °F 51.8 °F 68% 30.12 in 10.0 mi Variable 3.5 mph - N/A   Overcast
11:27 AM 62.6 °F 51.8 °F 68% 30.12 in 10.0 mi Variable 2.3 mph - N/A Rain Light Rain
11:31 AM 62.6 °F 51.8 °F 68% 30.12 in 10.0 mi NNW 3.5 mph - N/A   Overcast
11:36 AM 64.4 °F 51.8 °F 64% 30.12 in 10.0 mi North 4.6 mph - N/A Rain Light Rain
11:44 AM 64.4 °F 51.8 °F 64% 30.12 in 10.0 mi NW 5.8 mph - N/A Rain Light Rain
11:47 AM 64.4 °F 51.8 °F 64% 30.12 in 10.0 mi Variable 3.5 mph - N/A   Overcast
11:58 AM 64.4 °F 52.2 °F 64% 30.13 in 10.0 mi Variable 2.3 mph - 0.00 in   Overcast
12:58 PM 66.2 °F 51.8 °F 60% 30.12 in 10.0 mi SW 3.5 mph - N/A   Scattered Clouds
1:58 PM 67.8 °F 51.6 °F 56% 30.11 in 10.0 mi North 3.5 mph - N/A   Overcast
2:58 PM 68.7 °F 51.3 °F 54% 30.10 in 10.0 mi North 5.8 mph - N/A   Overcast
3:58 PM 69.8 °F 50.5 °F 50% 30.09 in 10.0 mi Variable 5.8 mph - N/A   Overcast
4:58 PM 72.7 °F 50.7 °F 46% 30.09 in 10.0 mi NW 6.9 mph - N/A   Overcast
5:58 PM 70.9 °F 50.4 °F 48% 30.08 in 10.0 mi West 5.8 mph - N/A   Clear
6:58 PM 69.6 °F 50.0 °F 50% 30.07 in 10.0 mi WNW 4.6 mph - N/A   Clear
7:58 PM 66.6 °F 50.5 °F 56% 30.06 in 10.0 mi WNW 5.8 mph - N/A   Clear
9:58 PM 63.7 °F 52.0 °F 66% 30.07 in 10.0 mi West 6.9 mph - N/A   Overcast
10:58 PM 62.1 °F 52.0 °F 70% 30.07 in 10.0 mi West 5.8 mph - N/A   Overcast
11:58 PM 60.8 °F 51.4 °F 71% 30.07 in 10.0 mi West 3.5 mph - N/A   Mostly Cloudy